Preview of NWS' New Version of Forecast
This preview is not operational and should not be used for support decisions.

Regional Weather Roundup (RWR)

Issued by National Weather Service (NWS)

                            
000
ASUS45 KBOU 170810
RWRCO 

WEATHER ROUNDUP FOR COLORADO
NATIONAL WEATHER SERVICE DENVER/BOULDER CO
200 AM MDT WED JUL 17 2019

NOTE: "FAIR" INDICATES FEW OR NO CLOUDS BELOW 12000 FEET WITH NO
SIGNIFICANT WEATHER AND/OR OBSTRUCTIONS TO VISIBILITY.

COZ001>005-013-030-031-170900-
...NORTHWEST COLORADO...
  
CITY           SKY/WX    TMP DP  RH WIND       PRES   REMARKS
CRAIG          FAIR      62  47  57 E6        30.02S                  
HAYDEN         NOT AVBL                                               
MEEKER         FAIR      59  40  49 NE12      30.05R                  
RANGELY        FAIR      64  35  34 CALM      29.95R                  
RABBIT EARS PA NOT AVBL                                               
STEAMBOAT SPGS FAIR      55  46  73 CALM      30.09S                  
WALDEN         NOT AVBL                                               
$$

COZ006>008-011-170900-
...WEST CENTRAL VALLEYS...
  
CITY           SKY/WX    TMP DP  RH WIND       PRES   REMARKS
GRAND JUNCTION FAIR      80  36  20 E10       29.92R                  
MONTROSE       FAIR      78  43  28 SE14G23   30.07S                  
EAGLE          FAIR      62  47  57 CALM      30.13R                  
RIFLE          FAIR      65  46  50 SE3       30.00R                  
DELTA          FAIR      75  38  26 NE9       30.02R                  
NUCLA          FAIR      77  37  24 NE3       30.11R                  
$$

COZ017>023-064>068-170900-
...SOUTHWEST COLORADO...
  
CITY           SKY/WX    TMP DP  RH WIND       PRES   REMARKS
DURANGO        FAIR      64  50  60 E5        30.26R                  
CORTEZ         FAIR      74  48  39 VRB3      30.14R                  
PAGOSA SPRINGS FAIR      57  56  95 CALM      30.36F                  
TELLURIDE      MOCLDY    63  43  48 E5        30.40F                  
WOLF CREEK PAS MOCLDY    45  41  87 S18       30.67F                  
$$

COZ009-010-012-014-032>034-037-058>063-170900-
...CENTRAL COLORADO...
  
CITY           SKY/WX    TMP DP  RH WIND       PRES   REMARKS
ASPEN          FAIR      66  42  41 SE14G21   30.20F                  
BUENA VISTA    FAIR      56  43  62 SW3       30.30R                  
COPPER MTN     FAIR      59  36  41 S12G18    30.57F                  
BERTHOUD PASS  FAIR      50  37  62 W13G18    30.60S                  
COTTONWOOD PAS FAIR      61  37  41 CALM      30.43R                  
GUNNISON       FAIR      62  53  72 N8        30.27F                  
GRANBY         NOT AVBL                                               
KREMMLING      FAIR      54  45  71 CALM      30.19R                  
LEADVILLE      FAIR      49  36  61 E3        30.41S                  
SALIDA         FAIR      70  44  38 S15G26    30.32F                  
SUNLIGHT       MOCLDY    55  28  35 SW12G21   30.46S                  
WILKERSON PASS FAIR      52  37  58 SW10G17   30.55S                  
$$

COZ069>075-170900-
...SAN LUIS VALLEY/SANGRE DE CRISTO MOUNTAINS...
  
CITY           SKY/WX    TMP DP  RH WIND       PRES   REMARKS
ALAMOSA        CLOUDY    61  49  64 SW13      30.32F                  
DEL NORTE      FAIR      59  47  65 W6        30.36S                  
LA VETA PASS   NOT AVBL                                               
SAGUACHE       FAIR      57  52  82 CALM      30.35S                  
$$

COZ035-036-038>040-170900-
...NORTHERN COLORADO FRONT RANGE...
  
CITY           SKY/WX    TMP DP  RH WIND       PRES   REMARKS
DENVER INTL AP MOCLDY    75  48  38 S23       29.97F                  
AURORA         PTCLDY    73  50  43 S23G33    30.00F                  
FRONT RANGE AP FAIR      76  49  38 S24G33    29.99F                  
ERIE MUNI ARPT FAIR      70  53  55 S5        29.99F                  
BOULDER MUN AP FAIR      66  48  52 CALM      29.95F                  
CENTENNIAL     MOCLDY    74  48  39 S16G28    30.03F                  
BROOMFIELD     FAIR      73  46  38 SE7       29.99F                  
FORT COLLINS   FAIR      67  52  58 SE3       29.94S                  
LONGMONT       FAIR      64  53  69 CALM      29.96S                  
$$

COZ041-046-047-076>085-087-088-170900-
...PIKES PEAK/PALMER DIVIDE AND SOUTHERN FOOTHILLS...
  
CITY           SKY/WX    TMP DP  RH WIND       PRES   REMARKS
COLO. SPRINGS  MOCLDY    66  50  56 S5        30.13F                  
A. F. ACADEMY  FAIR      65  48  55 CALM      30.13F                  
SCHRIEVER AFB  NOT AVBL                                               
CHEYENNE MTN   NOT AVBL                                               
ELLICOTT         N/A    N/A N/A N/A NW5       30.10F                  
FALCON           N/A    N/A N/A N/A MISG        N/A                   
FORT CARSON    FAIR      68  50  51 W9        30.08F                  
LIMON          FAIR      67  49  52 NW3       30.03F                  
MONUMENT HILL  LGT RAIN  63  50  63 MISG      30.17F                  
CANON CITY     NOT AVBL                                               
WALSENBURG     NOT AVBL                                               
TRINIDAD       FAIR      71  48  43 W12       30.09F                  
$$

COZ042>045-048>051-090-091-170900-
...NORTHEAST COLORADO...
  
CITY           SKY/WX    TMP DP  RH WIND       PRES   REMARKS
GREELEY ARPT   FAIR      70  52  52 S3        29.92S                  
AKRON          FAIR      69  54  58 S10       29.93F                  
BURLINGTON     FAIR      71  62  73 W3        29.90S                  
WRAY           FAIR      70  61  73 SW5       29.86F                  
YUMA           FAIR      64  43  45 CALM      29.89F                  
STERLING       FAIR      70  64  83 SW6       29.88F                  
HOLYOKE        FAIR      70  63  78 SW5       29.87S                  
FORT MORGAN    NOT AVBL                                               
$$

COZ086-089-092>099-170900-
...SOUTHEAST COLORADO...
  
CITY           SKY/WX    TMP DP  RH WIND       PRES   REMARKS
PUEBLO         FAIR      72  55  55 N8        30.00F                  
LA JUNTA       FAIR      77  54  44 S12       29.95F                  
LAMAR          FAIR      80  54  40 S14       29.89F                  
SPRINGFIELD      N/A     77  50  38 S20G31    29.99F                  
$$